Angoon, AK

10:22 PM AKST on December 09, 2019 (GMT -0900)
Angoon

Weather History for PAGN - May, 2019

Change the Weather History Date:

Tuesday, May 21, 2019

  Actual Average (WUND) Record (WUND)
Temperature  
Mean Temperature 52 °F -  
Max Temperature 62 °F - - (-1)
Min Temperature 46 °F - - (-1)
Degree Days  
Heating Degree Days 12    
Growing Degree Days 2 (Base 50)    
Moisture  
Dew Point 47 °F    
Average Humidity 79    
Maximum Humidity 97    
Minimum Humidity 67    
Precipitation  
Precipitation 0.00 in - - ()
Sea Level Pressure  
Sea Level Pressure 29.93 in    
Wind  
Wind Speed 2 mph (SSW)    
Max Wind Speed 7 mph    
Max Gust Speed -    
Visibility 10 miles    
Events      
Averages and records for this station are not official NWS values.
T = Trace of Precipitation, MM = Missing Value Source: NWS Daily Summary

Daily Weather History Graph

Daily Weather History Graph

Search for Another Location

Airport or City:

Astronomy

May. 21, 2019 Rise Set
Actual Time 4:25 AM AKDT 9:25 PM AKDT
Civil Twilight 3:28 AM AKDT 10:23 PM AKDT
Nautical Twilight 1:29 AM AKDT 12:32 AM AKDT
Astronomical Twilight Sun does not rise Sun does not rise
Moon No Moon Rise 6:38 AM AKDT (5/21)
Length of Visible Light 18h 55m
Length of Day
16h 59m
Waning Gibbous, 90% of the Moon is Illuminated
May 21
Waning Gibbous
May 26
Last Quarter
Jun 3
New
Jun 9
First Quarter
Jun 17
Full

Hourly Weather History & Observations

Time (AKDT) Temp. Dew Point Humidity Pressure Visibility Wind Dir Wind Speed Gust Speed Precip Events Conditions
12:56 AM 52.0 °F 46.9 °F 83% 29.74 in 10.0 mi Calm Calm - N/A   Partly Cloudy
1:56 AM 51.1 °F 46.9 °F 86% 29.76 in 10.0 mi Calm Calm - N/A   Clear
2:56 AM 50.0 °F 46.9 °F 89% 29.78 in 10.0 mi SSE 4.6 mph - N/A   Mostly Cloudy
3:56 AM 46.9 °F 46.0 °F 97% 29.79 in 10.0 mi Calm Calm - N/A   Clear
4:56 AM 48.0 °F 46.0 °F 93% 29.82 in 10.0 mi Calm Calm - N/A   Clear
5:56 AM 48.0 °F 46.0 °F 93% 29.85 in 10.0 mi Calm Calm - N/A   Mostly Cloudy
6:56 AM 48.9 °F 46.9 °F 93% 29.87 in 10.0 mi Calm Calm - N/A   Mostly Cloudy
7:56 AM 51.1 °F 46.9 °F 86% 29.88 in 10.0 mi Calm Calm - N/A   Overcast
8:56 AM 54.0 °F 46.9 °F 77% 29.90 in 10.0 mi ESE 3.5 mph - N/A   Scattered Clouds
9:56 AM 57.9 °F 48.0 °F 70% 29.91 in 10.0 mi East 3.5 mph - N/A   Clear
10:56 AM 55.9 °F 48.0 °F 75% 29.92 in 10.0 mi Variable 3.5 mph - N/A   Clear
11:56 AM 59.0 °F 48.0 °F 67% 29.94 in 10.0 mi Variable 3.5 mph - N/A   Clear
12:56 PM 57.9 °F 48.0 °F 70% 29.95 in 10.0 mi Calm Calm - N/A   Clear
1:56 PM 57.0 °F 48.0 °F 72% 29.96 in 10.0 mi Calm Calm - N/A   Clear
2:56 PM 59.0 °F 48.0 °F 67% 29.96 in 10.0 mi Variable 4.6 mph - N/A   Clear
3:56 PM 59.0 °F 48.0 °F 67% 29.98 in 10.0 mi Calm Calm - N/A   Clear
4:56 PM 59.0 °F 48.0 °F 67% 29.99 in 10.0 mi SW 6.9 mph - N/A   Clear
6:56 PM 57.0 °F 48.0 °F 72% 30.03 in 10.0 mi WSW 3.5 mph - N/A   Clear
7:56 PM 55.0 °F 46.9 °F 74% 30.05 in 10.0 mi Variable 4.6 mph - N/A   Clear
8:56 PM 52.0 °F 45.0 °F 77% 30.08 in 10.0 mi Variable 4.6 mph - N/A   Clear
9:56 PM 51.1 °F 45.0 °F 80% 30.10 in 10.0 mi WSW 3.5 mph - N/A   Clear
10:56 PM 50.0 °F 44.1 °F 80% 30.11 in 10.0 mi WSW 3.5 mph - N/A   Clear
11:56 PM 50.0 °F 44.1 °F 80% 30.12 in 10.0 mi Calm Calm - N/A   Clear